Huron, SD

2:43 PM CST on December 06, 2019 (GMT -0600)
Huron Regional

Weather History for KHON - November, 2019

Change the Weather History Date:

Wednesday, November 13, 2019

  Actual Average Record
Temperature  
Mean Temperature 28 °F 34 °F  
Max Temperature 38 °F 45 °F 75 °F (1999)
Min Temperature 19 °F 24 °F -11 °F (1940)
Degree Days  
Heating Degree Days 36 31  
Month to date heating degree days 478 357  
Since 1 July heating degree days 1254 1087  
Cooling Degree Days 0 0  
Month to date cooling degree days 0 0  
Year to date cooling degree days 714 742  
Moisture  
Dew Point 24 °F    
Average Humidity 79    
Maximum Humidity 88    
Minimum Humidity 64    
Precipitation  
Precipitation 0.00 in 0.03 in 0.68 in (1922)
Month to date precipitation 0.34 0.44  
Year to date precipitation 35.48 21.95  
Snow  
Snow 0.00 in 0.20 in 6.00 in (1922)
Month to date snowfall 2.7 2.2  
Since 1 July snowfall 8.5 3.3  
Since 1 September snowfall 8.5 3.3  
Snow Depth 0.00 in    
Sea Level Pressure  
Sea Level Pressure 30.01 in    
Wind  
Wind Speed 6 mph ()    
Max Wind Speed 20 mph    
Max Gust Speed 25 mph    
Visibility 10.0 miles    
Events      
T = Trace of Precipitation, MM = Missing Value Source: Averaged Metar Reports

Daily Weather History Graph

Daily Weather History Graph

Search for Another Location

Airport or City:

Astronomy

Nov. 13, 2019 Rise Set
Actual Time 7:26 AM CST 5:07 PM CST
Civil Twilight 6:54 AM CST 5:39 PM CST
Nautical Twilight 6:19 AM CST 6:14 PM CST
Astronomical Twilight 5:45 AM CST 6:48 PM CST
Moon 6:10 PM CST (11/13) 8:21 AM CST (11/13)
Length of Visible Light 10h 44m
Length of Day
9h 41m
Full, 99% of the Moon is Illuminated
Nov 13
Full
Nov 19
Last Quarter
Nov 26
New
Dec 4
First Quarter
Dec 11
Full

Hourly Weather History & Observations

Time (CST) Temp. Windchill Dew Point Humidity Pressure Visibility Wind Dir Wind Speed Gust Speed Precip Events Conditions
12:55 AM 30.0 °F 25.2 °F 25.0 °F 82% 29.82 in 10.0 mi SSE 4.6 mph - N/A   Overcast
1:55 AM 30.0 °F - 26.1 °F 85% 29.82 in 10.0 mi Calm Calm - N/A   Overcast
2:55 AM 30.0 °F - 26.1 °F 85% 29.83 in 10.0 mi Calm Calm - N/A   Overcast
3:55 AM 30.0 °F - 27.0 °F 88% 29.82 in 10.0 mi Calm Calm - N/A   Mostly Cloudy
4:55 AM 30.9 °F 24.3 °F 27.0 °F 85% 29.83 in 10.0 mi NW 6.9 mph - N/A   Overcast
5:55 AM 30.9 °F 26.2 °F 27.0 °F 85% 29.86 in 10.0 mi NW 4.6 mph - N/A   Overcast
6:55 AM 30.9 °F 22.8 °F 24.1 °F 76% 29.89 in 10.0 mi North 9.2 mph - N/A   Overcast
7:55 AM 30.0 °F 22.4 °F 25.0 °F 82% 29.93 in 10.0 mi NW 8.1 mph - N/A   Overcast
8:55 AM 32.0 °F 24.8 °F 25.0 °F 75% 29.96 in 10.0 mi North 8.1 mph - N/A   Overcast
9:55 AM 33.1 °F 24.4 °F 24.1 °F 70% 29.99 in 10.0 mi NNW 11.5 mph - N/A   Overcast
10:55 AM 34.0 °F 26.6 °F 26.1 °F 73% 30.01 in 10.0 mi NNW 9.2 mph - N/A   Mostly Cloudy
11:55 AM 35.1 °F 25.2 °F 28.0 °F 76% 30.02 in 10.0 mi NNW 16.1 mph - N/A   Overcast
12:07 PM 35.1 °F 25.9 °F 28.0 °F 76% 29.98 in 10.0 mi NNW 13.8 mph - N/A   Overcast
12:55 PM 35.1 °F 25.9 °F 28.0 °F 76% 30.01 in 10.0 mi NNW 13.8 mph - N/A   Overcast
1:21 PM 36.0 °F 27.1 °F 27.0 °F 70% 29.98 in 10.0 mi NW 13.8 mph - N/A   Overcast
1:55 PM 36.0 °F 26.7 °F 27.0 °F 70% 30.03 in 10.0 mi NW 15.0 mph - N/A   Overcast
2:55 PM 37.0 °F 27.7 °F 27.0 °F 67% 30.04 in 10.0 mi NW 16.1 mph - N/A   Mostly Cloudy
3:55 PM 37.0 °F 29.8 °F 26.1 °F 65% 30.06 in 10.0 mi NNW 10.4 mph - N/A   Clear
4:55 PM 33.1 °F 26.1 °F 25.0 °F 72% 30.08 in 10.0 mi NW 8.1 mph - N/A   Clear
5:55 PM 26.1 °F 19.4 °F 23.0 °F 88% 30.11 in 10.0 mi NNW 5.8 mph - N/A   Clear
6:55 PM 26.1 °F - 23.0 °F 88% 30.13 in 10.0 mi Calm Calm - N/A   Clear
7:55 PM 24.1 °F 15.2 °F 21.0 °F 88% 30.16 in 10.0 mi NW 8.1 mph - N/A   Clear
8:55 PM 25.0 °F 16.3 °F 19.9 °F 81% 30.18 in 10.0 mi North 8.1 mph - N/A   Clear
9:55 PM 21.9 °F 12.5 °F 18.0 °F 85% 30.22 in 10.0 mi NNW 8.1 mph - N/A   Clear
10:55 PM 19.0 °F 10.0 °F 16.0 °F 88% 30.23 in 10.0 mi NNW 6.9 mph - N/A   Clear
11:55 PM 19.0 °F 10.0 °F 16.0 °F 88% 30.25 in 10.0 mi NW 6.9 mph - N/A   Clear